EZY001 LOWW-LKPR

Flight info

Callsign EZY001
Flight time 0h 37m
Altitude 22000
Route UNGU2C/29 LANUX DCT VLM
Aircraft A20N/M-SDE2E3FGHIRWXY/LB1

Departure

Time 2026-04-24 21:17
Airport Vienna International Airport (LOWW)

Arrival

Time 2026-04-24 21:54
Airport Václav Havel Airport Prague (LKPR)
Time Latitude Longitude Altitude Speed Heading
2026-04-24 20:57 48.11707 16.56790 616 ft 0 kts 27°
2026-04-24 21:06 48.11699 16.56783 621 ft 2 kts 30°
2026-04-24 21:06 48.11685 16.56771 617 ft 2 kts 32°
2026-04-24 21:07 48.11671 16.56757 618 ft 2 kts 38°
2026-04-24 21:07 48.11659 16.56740 624 ft 2 kts 50°
2026-04-24 21:07 48.11651 16.56719 618 ft 2 kts 80°
2026-04-24 21:07 48.11652 16.56696 625 ft 1 kts 112°
2026-04-24 21:08 48.11654 16.56692 625 ft 0 kts 115°
2026-04-24 21:11 48.11648 16.56708 625 ft 5 kts 115°
2026-04-24 21:11 48.11625 16.56780 623 ft 10 kts 116°
2026-04-24 21:11 48.11583 16.56892 618 ft 14 kts 133°
2026-04-24 21:12 48.11487 16.56885 616 ft 16 kts 208°
2026-04-24 21:12 48.11420 16.56836 626 ft 16 kts 205°
2026-04-24 21:12 48.11323 16.56926 627 ft 15 kts 115°
2026-04-24 21:12 48.11273 16.57079 626 ft 19 kts 116°
2026-04-24 21:13 48.11210 16.57272 628 ft 22 kts 116°
2026-04-24 21:13 48.11152 16.57451 627 ft 16 kts 115°
2026-04-24 21:13 48.11129 16.57522 619 ft 9 kts 115°
2026-04-24 21:13 48.11092 16.57625 627 ft 13 kts 130°
2026-04-24 21:14 48.11023 16.57633 629 ft 0 kts 207°
2026-04-24 21:15 48.11018 16.57629 627 ft 3 kts 207°
2026-04-24 21:16 48.10983 16.57602 632 ft 8 kts 207°
2026-04-24 21:16 48.10928 16.57542 625 ft 10 kts 245°
2026-04-24 21:16 48.10952 16.57419 627 ft 30 kts 294°
2026-04-24 21:16 48.11160 16.56779 636 ft 104 kts 296°
2026-04-24 21:17 48.11578 16.55506 637 ft 163 kts 296°
2026-04-24 21:17 48.12094 16.53942 1167 ft 165 kts 296°
2026-04-24 21:17 48.12303 16.52277 1906 ft 175 kts 262°
2026-04-24 21:17 48.11905 16.51129 2187 ft 202 kts 230°
2026-04-24 21:18 48.10301 16.49434 3188 ft 220 kts 214°
2026-04-24 21:18 48.08963 16.48229 3955 ft 226 kts 216°
2026-04-24 21:18 48.07757 16.46765 4819 ft 222 kts 238°
2026-04-24 21:18 48.06928 16.44717 5529 ft 241 kts 249°
2026-04-24 21:19 48.06200 16.42367 6356 ft 254 kts 251°
2026-04-24 21:19 48.05477 16.39925 7364 ft 260 kts 251°
2026-04-24 21:19 48.04733 16.37416 8343 ft 268 kts 251°
2026-04-24 21:19 48.04047 16.34829 9328 ft 272 kts 259°
2026-04-24 21:20 48.04222 16.29190 10710 ft 293 kts 298°
2026-04-24 21:20 48.05582 16.26818 11169 ft 312 kts 324°
2026-04-24 21:20 48.07493 16.25162 11950 ft 322 kts 333°
2026-04-24 21:21 48.09519 16.23640 12852 ft 330 kts 334°
2026-04-24 21:21 48.11599 16.22091 13771 ft 336 kts 334°
2026-04-24 21:21 48.13707 16.20500 14577 ft 342 kts 333°
2026-04-24 21:21 48.15828 16.18883 15401 ft 346 kts 333°
2026-04-24 21:22 48.17981 16.17230 16338 ft 348 kts 333°
2026-04-24 21:22 48.20152 16.15556 17201 ft 352 kts 332°
2026-04-24 21:22 48.22347 16.13859 18032 ft 357 kts 332°
2026-04-24 21:22 48.23817 16.12720 18556 ft 360 kts 332°
2026-04-24 21:23 48.26820 16.10392 19512 ft 366 kts 332°
2026-04-24 21:23 48.29103 16.08619 20208 ft 371 kts 332°
2026-04-24 21:23 48.31375 16.06852 20874 ft 375 kts 332°
2026-04-24 21:23 48.33715 16.05031 21522 ft 380 kts 332°
2026-04-24 21:24 48.36077 16.03191 21957 ft 384 kts 332°
2026-04-24 21:24 48.38450 16.01340 22064 ft 384 kts 332°
2026-04-24 21:24 48.40828 15.99484 22081 ft 385 kts 332°
2026-04-24 21:24 48.43200 15.97629 22065 ft 383 kts 332°
2026-04-24 21:25 48.45567 15.95777 22065 ft 382 kts 332°
2026-04-24 21:25 48.47926 15.93929 22064 ft 382 kts 332°
2026-04-24 21:25 48.50288 15.92077 22066 ft 382 kts 332°
2026-04-24 21:25 48.52613 15.90252 22064 ft 382 kts 332°
2026-04-24 21:26 48.54971 15.88399 22068 ft 382 kts 332°
2026-04-24 21:26 48.57326 15.86546 22067 ft 381 kts 332°
2026-04-24 21:26 48.59681 15.84692 22067 ft 381 kts 332°
2026-04-24 21:26 48.62041 15.82831 22064 ft 381 kts 332°
2026-04-24 21:27 48.64393 15.80975 22065 ft 381 kts 332°
2026-04-24 21:27 48.66742 15.79120 22074 ft 381 kts 332°
2026-04-24 21:27 48.69088 15.77265 22069 ft 380 kts 332°
2026-04-24 21:27 48.70641 15.76036 22071 ft 379 kts 332°
2026-04-24 21:28 48.73745 15.73576 22068 ft 379 kts 332°
2026-04-24 21:28 48.76083 15.71721 22067 ft 379 kts 332°
2026-04-24 21:28 48.78420 15.69865 22075 ft 379 kts 332°
2026-04-24 21:28 48.80762 15.68003 22071 ft 379 kts 332°
2026-04-24 21:29 48.83102 15.66140 22073 ft 379 kts 332°
2026-04-24 21:29 48.85440 15.64278 22073 ft 379 kts 332°
2026-04-24 21:29 48.87746 15.62440 22072 ft 379 kts 332°
2026-04-24 21:29 48.90128 15.60712 22073 ft 379 kts 335°
2026-04-24 21:30 48.92544 15.59095 22083 ft 379 kts 335°
2026-04-24 21:30 48.94962 15.57501 22080 ft 378 kts 335°
2026-04-24 21:30 48.97384 15.55902 22082 ft 378 kts 335°
2026-04-24 21:30 48.99806 15.54300 22079 ft 378 kts 335°
2026-04-24 21:31 49.02220 15.52699 22079 ft 379 kts 335°
2026-04-24 21:31 49.04645 15.51088 22078 ft 379 kts 335°
2026-04-24 21:31 49.07061 15.49481 22086 ft 379 kts 335°
2026-04-24 21:31 49.09476 15.47872 22085 ft 379 kts 335°
2026-04-24 21:32 49.11078 15.46804 22089 ft 379 kts 335°
2026-04-24 21:32 49.13493 15.45192 22086 ft 379 kts 335°
2026-04-24 21:32 49.16696 15.43052 22093 ft 379 kts 335°
2026-04-24 21:32 49.18330 15.41959 22087 ft 378 kts 335°
2026-04-24 21:33 49.21526 15.39818 22095 ft 378 kts 335°
2026-04-24 21:33 49.23122 15.38748 22095 ft 378 kts 335°
2026-04-24 21:33 49.25529 15.37133 22093 ft 378 kts 335°
2026-04-24 21:33 49.27948 15.35508 22094 ft 378 kts 335°
2026-04-24 21:34 49.30352 15.33891 22095 ft 378 kts 335°
2026-04-24 21:34 49.32757 15.32272 22093 ft 378 kts 335°
2026-04-24 21:34 49.35163 15.30650 22085 ft 378 kts 335°
2026-04-24 21:34 49.37574 15.29023 22099 ft 379 kts 335°
2026-04-24 21:35 49.39989 15.27393 22098 ft 379 kts 335°
2026-04-24 21:35 49.42403 15.25761 22104 ft 379 kts 335°
2026-04-24 21:35 49.44783 15.24150 22103 ft 378 kts 335°
2026-04-24 21:35 49.47198 15.22513 22101 ft 378 kts 335°
2026-04-24 21:36 49.49605 15.20881 22102 ft 378 kts 335°
2026-04-24 21:36 49.52014 15.19245 22103 ft 378 kts 335°
2026-04-24 21:36 49.54427 15.17605 22052 ft 382 kts 335°
2026-04-24 21:36 49.56846 15.15958 21784 ft 376 kts 335°
2026-04-24 21:37 49.59205 15.14353 21453 ft 365 kts 335°
2026-04-24 21:37 49.61521 15.12774 20843 ft 364 kts 334°
2026-04-24 21:37 49.63835 15.11194 20266 ft 362 kts 334°
2026-04-24 21:37 49.66135 15.09622 19729 ft 360 kts 334°
2026-04-24 21:38 49.68382 15.08046 19150 ft 358 kts 332°
2026-04-24 21:38 49.70462 15.05983 18610 ft 354 kts 319°
2026-04-24 21:38 49.72164 15.03251 17999 ft 352 kts 310°
2026-04-24 21:38 49.73684 15.00291 17436 ft 349 kts 308°
2026-04-24 21:39 49.75159 14.97318 16897 ft 346 kts 308°
2026-04-24 21:39 49.76614 14.94376 16363 ft 343 kts 308°
2026-04-24 21:39 49.78063 14.91454 15822 ft 340 kts 308°
2026-04-24 21:39 49.79511 14.88559 15290 ft 338 kts 309°
2026-04-24 21:40 49.81156 14.85991 14769 ft 336 kts 322°
2026-04-24 21:40 49.83163 14.84245 14244 ft 336 kts 338°
2026-04-24 21:40 49.85433 14.83360 13681 ft 336 kts 347°
2026-04-24 21:40 49.87741 14.82786 13120 ft 334 kts 349°
2026-04-24 21:41 49.90033 14.82262 12607 ft 331 kts 349°
2026-04-24 21:41 49.92301 14.81740 12110 ft 328 kts 349°
2026-04-24 21:41 49.94543 14.81215 11610 ft 325 kts 349°
2026-04-24 21:41 49.96743 14.80694 11096 ft 322 kts 349°
2026-04-24 21:42 49.98963 14.80107 10676 ft 325 kts 346°
2026-04-24 21:42 50.01063 14.79008 10538 ft 309 kts 337°
2026-04-24 21:42 50.02918 14.77543 10466 ft 291 kts 326°
2026-04-24 21:42 50.04354 14.75442 10330 ft 279 kts 309°
2026-04-24 21:43 50.05227 14.72792 10067 ft 276 kts 290°
2026-04-24 21:43 50.05469 14.69813 9666 ft 279 kts 270°
2026-04-24 21:43 50.05037 14.66853 9305 ft 282 kts 253°
2026-04-24 21:43 50.04270 14.64086 8968 ft 281 kts 249°
2026-04-24 21:44 50.03433 14.61337 8631 ft 279 kts 249°
2026-04-24 21:44 50.02603 14.58618 8290 ft 277 kts 249°
2026-04-24 21:44 50.01784 14.55911 7946 ft 275 kts 249°
2026-04-24 21:44 50.01006 14.53247 7592 ft 272 kts 253°
2026-04-24 21:45 50.00606 14.50436 7250 ft 263 kts 272°
2026-04-24 21:45 50.00933 14.47694 6918 ft 255 kts 295°
2026-04-24 21:45 50.01929 14.45468 6618 ft 251 kts 317°
2026-04-24 21:45 50.03406 14.44047 6232 ft 252 kts 340°
2026-04-24 21:46 50.05127 14.43707 5984 ft 250 kts
2026-04-24 21:46 50.06782 14.44521 5689 ft 253 kts 27°
2026-04-24 21:46 50.08074 14.46402 5380 ft 258 kts 52°
2026-04-24 21:46 50.08929 14.48829 5070 ft 260 kts 61°
2026-04-24 21:47 50.09681 14.51403 4635 ft 263 kts 62°
2026-04-24 21:47 50.10512 14.53795 4233 ft 261 kts 49°
2026-04-24 21:47 50.11916 14.55670 4035 ft 249 kts 23°
2026-04-24 21:47 50.13486 14.56327 4022 ft 226 kts 360°
2026-04-24 21:48 50.14942 14.56010 4046 ft 204 kts 340°
2026-04-24 21:48 50.16175 14.55184 4037 ft 182 kts 333°
2026-04-24 21:48 50.17231 14.54312 4027 ft 161 kts 327°
2026-04-24 21:48 50.18016 14.53219 4041 ft 141 kts 308°
2026-04-24 21:49 50.18405 14.51915 4042 ft 129 kts 287°
2026-04-24 21:49 50.18422 14.50518 4027 ft 131 kts 265°
2026-04-24 21:49 50.18114 14.49183 4016 ft 130 kts 253°
2026-04-24 21:49 50.17744 14.47908 4021 ft 128 kts 253°
2026-04-24 21:50 50.17371 14.46646 3977 ft 128 kts 252°
2026-04-24 21:50 50.16993 14.45391 3820 ft 128 kts 252°
2026-04-24 21:50 50.16620 14.44148 3637 ft 127 kts 253°
2026-04-24 21:50 50.16248 14.42905 3472 ft 126 kts 252°
2026-04-24 21:51 50.15878 14.41667 3290 ft 126 kts 253°
2026-04-24 21:51 50.15509 14.40431 3122 ft 126 kts 252°
2026-04-24 21:51 50.15140 14.39197 2916 ft 125 kts 252°
2026-04-24 21:51 50.14773 14.37968 2741 ft 125 kts 251°
2026-04-24 21:52 50.14404 14.36735 2586 ft 125 kts 251°
2026-04-24 21:52 50.14043 14.35532 2390 ft 124 kts 251°
2026-04-24 21:52 50.13716 14.34302 2200 ft 123 kts 252°
2026-04-24 21:52 50.13367 14.33083 2070 ft 124 kts 247°
2026-04-24 21:53 50.12970 14.31896 1904 ft 123 kts 245°
2026-04-24 21:53 50.12603 14.30690 1719 ft 123 kts 247°
2026-04-24 21:53 50.12257 14.29477 1524 ft 122 kts 243°
2026-04-24 21:53 50.11883 14.28301 1368 ft 121 kts 244°
2026-04-24 21:54 50.11522 14.27115 1222 ft 121 kts 243°
2026-04-24 21:54 50.11198 14.26033 1168 ft 80 kts 245°
2026-04-24 21:54 50.11086 14.25654 1174 ft 13 kts 245°
2026-04-24 21:54 50.11037 14.25524 1173 ft 17 kts 230°
2026-04-24 21:55 50.10941 14.25387 1178 ft 21 kts 214°
2026-04-24 21:55 50.10784 14.25351 1171 ft 25 kts 159°
2026-04-24 21:55 50.10675 14.25531 1177 ft 23 kts 119°
2026-04-24 21:55 50.10598 14.25747 1185 ft 22 kts 121°
2026-04-24 21:56 50.10536 14.25963 1185 ft 22 kts 65°
2026-04-24 21:56 50.10672 14.26120 1179 ft 27 kts 32°
2026-04-24 21:56 50.10798 14.26268 1177 ft 16 kts 78°
2026-04-24 21:56 50.10768 14.26308 1179 ft 6 kts 187°
2026-04-24 21:57 50.10733 14.26293 1180 ft 0 kts 195°
2026-04-24 21:57 50.10728 14.26290 1180 ft 0 kts 195°